Location: Newark
(45.4422°N, 16.2769°E)
Time: 02:19:20
(UTC+00:00)

Vanguard 2 - Pass Details

Date: 09 December 2019
Orbit: 553 x 2938 km, 32.9° (Epoch: 28 January)

Event Time Altitude Azimuth Distance (km) Brightness Sun altitude
Rises 01:14:51 0° 236° (SW) 6,159 - -52.4°
Reaches altitude 10° 01:18:49 10° 231° (SW) 5,371 - -51.8°
Maximum altitude 01:34:32 48° 164° (SSE) 3,547 - -49.2°
Exits shadow 01:35:06 48° 160° (SSE) 3,550 10.6 -49.1°
Drops below altitude 10° 01:50:12 10° 98° (E) 5,362 12.3 -46.6°
Sets 01:54:08 0° 93° (E) 6,150 12.8 -45.9°
